Time,TemperatureF,DewpointF,PressureIn,WindDirection,WindDirectionDegrees,WindSpeedMPH,WindSpeedGustMPH,Humidity,HourlyPrecipIn,Conditions,Clouds,dailyrainin,SolarRadiationWatts/m^2,SoftwareType,DateUTC
2013-03-28 14:52:00,36.0,24.0,-100.00,NNW,337,6.0,11.0,62,-99.99,,,0.02,194.000000,,2013-03-28 18:52:00,
2013-03-28 15:02:00,36.0,24.0,-100.00,NNW,337,6.0,11.0,62,-99.99,,,0.02,194.000000,,2013-03-28 19:02:00,
2013-03-28 15:33:00,38.0,31.0,-100.00,North,349,4.0,13.0,75,0.01,,,0.03,237.000000,,2013-03-28 19:33:00,
2013-03-28 15:43:00,38.0,31.0,-100.00,North,349,4.0,13.0,75,0.01,,,0.03,237.000000,,2013-03-28 19:43:00,
2013-03-28 15:52:00,38.0,31.0,-100.00,North,349,4.0,13.0,75,0.01,,,0.03,237.000000,,2013-03-28 19:52:00,
2013-03-28 16:03:00,38.0,31.0,-100.00,North,349,4.0,13.0,75,0.01,,,0.03,237.000000,,2013-03-28 20:03:00,
2013-03-28 16:33:00,37.0,26.0,-100.00,NNW,333,5.0,12.0,65,0.00,,,0.03,253.000000,,2013-03-28 20:33:00,
2013-03-28 16:42:00,37.0,26.0,-100.00,NNW,333,5.0,12.0,65,0.00,,,0.03,253.000000,,2013-03-28 20:42:00,
2013-03-28 16:53:00,37.0,26.0,-100.00,NNW,333,5.0,12.0,65,0.00,,,0.03,253.000000,,2013-03-28 20:53:00,
2013-03-28 17:03:00,37.0,26.0,-100.00,NNW,333,5.0,12.0,65,0.00,,,0.03,253.000000,,2013-03-28 21:03:00,
2013-03-28 17:33:00,36.0,26.0,-100.00,NW,324,5.0,12.0,67,0.00,,,0.03,155.000000,,2013-03-28 21:33:00,
2013-03-28 17:43:00,36.0,26.0,-100.00,NW,324,5.0,12.0,67,0.00,,,0.03,155.000000,,2013-03-28 21:43:00,
2013-03-28 17:53:00,36.0,26.0,-100.00,NW,324,5.0,12.0,67,0.00,,,0.03,155.000000,,2013-03-28 21:53:00,
2013-03-28 18:03:00,36.0,26.0,-100.00,NW,324,5.0,12.0,67,0.00,,,0.03,155.000000,,2013-03-28 22:03:00,
2013-03-28 18:32:00,34.0,27.0,-100.00,NW,304,5.0,12.0,75,0.00,,,0.03,63.000000,,2013-03-28 22:32:00,
2013-03-28 18:42:00,34.0,27.0,-100.00,NW,304,5.0,12.0,75,0.00,,,0.03,63.000000,,2013-03-28 22:42:00,
2013-03-28 18:53:00,34.0,27.0,-100.00,NW,304,5.0,12.0,75,0.00,,,0.03,63.000000,,2013-03-28 22:53:00,
2013-03-28 19:03:00,34.0,27.0,-100.00,NW,304,5.0,12.0,75,0.00,,,0.03,63.000000,,2013-03-28 23:03:00,
2013-03-28 19:32:00,32.0,28.0,-100.00,NW,323,5.0,12.0,86,0.00,,,0.03,41.000000,,2013-03-28 23:32:00,
2013-03-28 19:42:00,32.0,28.0,-100.00,NW,323,5.0,12.0,86,0.00,,,0.03,41.000000,,2013-03-28 23:42:00,
2013-03-28 19:53:00,32.0,28.0,-100.00,NW,323,5.0,12.0,86,0.00,,,0.03,41.000000,,2013-03-28 23:53:00,
2013-03-28 20:02:00,32.0,28.0,-100.00,NW,323,5.0,12.0,86,0.00,,,0.03,41.000000,,2013-03-29 00:02:00,
2013-03-28 20:33:00,31.0,27.0,-100.00,NW,310,5.0,11.0,86,0.00,,,-99.99,4.000000,,2013-03-29 00:33:00,
2013-03-28 20:42:00,31.0,27.0,-100.00,NW,310,5.0,11.0,86,0.00,,,-99.99,4.000000,,2013-03-29 00:42:00,
2013-03-28 20:52:00,31.0,27.0,-100.00,NW,310,5.0,11.0,86,0.00,,,-99.99,4.000000,,2013-03-29 00:52:00,
2013-03-28 21:02:00,31.0,27.0,-100.00,NW,310,5.0,11.0,86,0.00,,,-99.99,4.000000,,2013-03-29 01:02:00,
2013-03-28 21:33:00,31.0,28.0,-100.00,NW,319,5.0,12.0,88,0.00,,,-99.99,0.000000,,2013-03-29 01:33:00,
2013-03-28 21:42:00,31.0,28.0,-100.00,NW,319,5.0,12.0,88,0.00,,,-99.99,0.000000,,2013-03-29 01:42:00,
2013-03-28 21:52:00,31.0,28.0,-100.00,NW,319,5.0,12.0,88,0.00,,,-99.99,0.000000,,2013-03-29 01:52:00,
2013-03-28 22:02:00,31.0,28.0,-100.00,NW,319,5.0,12.0,88,0.00,,,-99.99,0.000000,,2013-03-29 02:02:00,
2013-03-28 22:32:00,31.0,28.0,-100.00,NNW,334,4.0,11.0,90,0.00,,,-99.99,0.000000,,2013-03-29 02:32:00,
2013-03-28 22:42:00,31.0,28.0,-100.00,NNW,334,4.0,11.0,90,0.00,,,-99.99,0.000000,,2013-03-29 02:42:00,
2013-03-28 22:53:00,31.0,28.0,-100.00,NNW,334,4.0,11.0,90,0.00,,,-99.99,0.000000,,2013-03-29 02:53:00,
2013-03-28 23:02:00,31.0,28.0,-100.00,NNW,334,4.0,11.0,90,0.00,,,-99.99,0.000000,,2013-03-29 03:02:00,
2013-03-28 23:33:00,31.0,29.0,-100.00,NW,323,4.0,10.0,92,0.00,,,-99.99,0.000000,,2013-03-29 03:33:00,
2013-03-28 23:43:00,31.0,29.0,-100.00,NW,323,4.0,10.0,92,0.00,,,-99.99,0.000000,,2013-03-29 03:43:00,
2013-03-28 23:53:00,31.0,29.0,-100.00,NW,323,4.0,10.0,92,0.00,,,-99.99,0.000000,,2013-03-29 03:53:00,